Regional Weather Roundup
Issued by NWS

Home | Current Version | Previous Version | Graphics & Text | Print | Product List | Glossary On
Versions: 1 2 3 4 5 6 7 8 9 10 11 12 13 14 15 16 17 18 19 20 21 22 23 24 25 26 27 28 29 30 31 32 33 34 35 36 37 38 39 40 41 42 43 44 45 46 47 48 49 50
769
ASUS43 KDMX 211501
RWRIA

WEATHER ROUNDUP FOR IOWA
NATIONAL WEATHER SERVICE DES MOINES IA
900 AM CST TUE NOV 21 2017

NOTE: "FAIR" INDICATES FEW OR NO CLOUDS BELOW 12,000 FEET WITH NO
SIGNIFICANT WEATHER AND/OR OBSTRUCTIONS TO VISIBILITY.

* - THESE STATIONS ARE NOT NWS STATIONS...THUS NOT UNDER NWS
QUALITY CONTROL.  THEY ALSO DO NOT REPORT WEATHER SUCH
AS PRECIPITATION OR FOG.

IAZ001>003-012>014-020>022-031>034-043>046-211600-
   NORTHWEST IOWA

CITY           SKY/WX    TMP DP  RH WIND       PRES   REMARKS
CARROLL *      SUNNY     32  14  47 NW31G37   30.04R WCI  17
CHEROKEE *     SUNNY     22  10  61 N18G31    30.12R WCI   7
DENISON *      CLOUDY    28  10  47 N24G36    30.09R WCI  14
LE MARS *      SUNNY     21  10  63 NW13G31   30.17R WCI   9
ORANGE CITY *  MOSUNNY   21  12  68 NW20G31   30.13R WCI   6
SHELDON *      SUNNY     21  10  63 NW25G33   30.11R WCI   4
SIOUX CITY     SUNNY     22   9  57 N31G40    30.16R WCI   4
SPENCER        SUNNY     22  10  60 NW24G36   30.08R WCI   5
STORM LAKE *   SUNNY     21  10  63 N31G40    30.06R WCI   3
$$

IAZ055>058-069>071-079>083-090>094-211600-
   SOUTHWEST IOWA

CITY           SKY/WX    TMP DP  RH WIND       PRES   REMARKS
ATLANTIC *     PTSUNNY   39  19  45 N23G31    30.03R WCI  29
AUDUBON *      CLOUDY    36  16  44 NW24G33   30.03R WCI  24
CLARINDA *     CLOUDY    41  25  52 N20G25    30.04R
COUNCIL BLFS * PTSUNNY   39  21  48 N18G33    30.05R WCI  30
CRESTON *      CLOUDY    39  25  56 N24G32    30.00R WCI  28
HARLAN  *      CLOUDY    36  19  51 N31G38    30.08R WCI  22
LAMONI         CLOUDY    40  24  53 N15G26    29.97R WCI  32
RED OAK *      CLOUDY    41  27  56 N13       30.05R
SHENANDOAH *   CLOUDY    41  25  52 N20G31    30.04R
$$

IAZ047>049-059>061-072>074-084-211600-
   CENTRAL IOWA

CITY           SKY/WX    TMP DP  RH WIND       PRES   REMARKS
AMES           CLOUDY    35  16  45 N22G32    29.99R WCI  23
ANKENY *       CLOUDY    39  19  45 NW24      29.99R WCI  28
BOONE *        CLOUDY    34  14  44 NW28G37   29.99R WCI  20
CHARITON *     PTSUNNY   39  23  52 NW20G26   29.96R WCI  30
DES MOINES     CLOUDY    40  21  46 NW21G31   29.97R WCI  30
GRINNELL*      CLOUDY    38  19  47 NW24G33   29.95R WCI  26
KNOXVILLE *    CLOUDY    41  19  42 NW17G29   29.95R
MARSHALLTOWN   CLOUDY    34  20  56 NW24G35   29.96R WCI  21
NEWTON *       CLOUDY    39  19  45 NW23      29.96R WCI  29
PELLA *        MOSUNNY   41  22  47 NW16G23   29.96R
PERRY *          N/A     34  14  43 NW21G30   30.02R WCI  22
$$

IAZ004>006-015-016-023>025-035-036-211600-
   NORTH CENTRAL IOWA

CITY           SKY/WX    TMP DP  RH WIND       PRES   REMARKS
ALGONA *       MOSUNNY   25  12  58 NW28G39   30.03R WCI   8
CLARION *      MOSUNNY   25  12  58 NW32G39   30.01R WCI   7
ESTHERVILLE    MOSUNNY   22  12  65 NW28G37   30.05R WCI   4
FORT DODGE *   SUNNY     25  13  60 NW12G29   30.05R WCI  14
MASON CITY     MOSUNNY   23  12  62 NW30G39   29.99R WCI   5
FOREST CITY *    N/A     27  14  59 NW24G38   29.99R WCI  12
WEBSTER CITY * FLURRIES  27  12  54 NW33G41   30.01R WCI   9
IOWA FALLS *     N/A     28  18  66 NW25G40   29.98R WCI  14
$$

IAZ007>011-017>019-026>030-037>042-050>054-066-211600-
   NORTHEAST IOWA

CITY           SKY/WX    TMP DP  RH WIND       PRES   REMARKS
CEDAR RAPIDS   CLOUDY    38  19  46 NW24G31   29.90R WCI  27
CHARLES CITY * PTSUNNY   27  14  59 NW23G33   29.94R WCI  12
CLINTON *      CLOUDY    38  21  50 NW25G36   29.86R WCI  27
DECORAH *      CLOUDY    27  16  63 NW15G26   29.88R WCI  15
DUBUQUE        PTSUNNY   33  18  53 NW23G36   29.85R WCI  21
MONTICELLO *   CLOUDY    36  18  48 NW20G32   29.88R WCI  25
OELWEIN *      CLOUDY    28  18  64 NW35G44   29.91R WCI  12
WATERLOO       CLOUDY    29  16  58 NW28G40   29.93R WCI  14
$$

IAZ064-065-067-068-078-211600-
   EAST CENTRAL IOWA

CITY           SKY/WX    TMP DP  RH WIND       PRES   REMARKS
DAVENPORT      MIX PCPN  36  28  73 NW9       29.89R WCI  29
IOWA CITY      CLOUDY    40  21  46 NW13G23   29.93R WCI  32
MT. PLEASANT * CLOUDY    39  20  46 NW14G28   29.93R WCI  31
MUSCATINE *    LGT RAIN  39  28  65 MISG      29.92R
QUAD CITIES    LGT RAIN  39  28  64 NW15G24   29.87R WCI  31
$$

IAZ062-063-075>077-085>089-095>099-211600-
   SOUTHEAST IOWA

CITY           SKY/WX    TMP DP  RH WIND       PRES   REMARKS
BURLINGTON     CLOUDY    43  25  49 NW14G24   29.90R
FAIRFIELD *    CLOUDY    37  28  70 NW13G21   29.93R WCI  29
FORT MADISON * CLOUDY    45  25  45 NW22      29.91R
KEOKUK *       CLOUDY    45  27  49 NW15G22   29.90R
OSKALOOSA *    PTSUNNY   38  28  68 NW16      29.95R WCI  28
OTTUMWA        LGT RAIN  38  30  73 NW12      29.94R WCI  30
WASHINGTON *   LGT RAIN  37  28  70 NW16G24   29.94R WCI  28
$$

ABBREVIATIONS USED IN REMARKS
   TC - TEMPERATURES IN CELSIUS
  WCI - WIND CHILL INDEX
   HX - HEAT INDEX
  VSB - VISIBILITY
$$





USA.gov is the U.S. government's official web portal to all federal, state and local government web resources and services.